Hourly Data Report for October 17, 2014

All times are specified in Local Standard Time (LST). Add 1 hour to adjust for Daylight Saving Time where and when it is observed.

CHARLOTTETOWN A
PRINCE EDWARD ISLAND

46°17'21.000" N
63°07'09.000" W
48.50 m
8300301
71706
YYG

Download Data

Hourly Data (October 2014)
Hourly Data Report for October 17, 2014
Temp Definition
°C
Dew Point Temp Definition
°C
Rel Hum Definition
%
Wind Dir Definition
10's deg

Wind Spd Definition
km/h
Visibility Definition
km
Stn Press Definition
kPa
Hmdx Definition


Wind Chill Definition


Weather Definition


TIME
00:00 Legend Double Dagger 14.6 13.8 95 14 21 19.3 101.16     LegendNANA
01:00 Legend Double Dagger 14.4 13.8 96 14 23 19.3 101.12     LegendNANA
02:00 Legend Double Dagger 14.7 14.6 99 14 20 1.2 101.05     Fog
03:00 Legend Double Dagger 14.9 14.4 97 14 23 9.7 100.97     Fog
04:00 Legend Double Dagger 14.8 14.5 98 14 20 4.0 100.94     Fog
05:00 Legend Double Dagger 15.0 14.9 99 13 13 3.2 100.90     Fog
06:00 Legend Double Dagger 15.6 15.0 96 13 19 16.1 100.81     LegendNANA
07:00 Legend Double Dagger 16.1 15.3 95 14 26 16.1 100.79     LegendNANA
08:00 Legend Double Dagger 16.7 15.9 95 14 22 16.1 100.74     Cloudy
09:00 Legend Double Dagger 18.1 16.6 91 13 23 19.3 100.62     LegendNANA
10:00 Legend Double Dagger 19.0 16.8 87 13 30 19.3 100.49     LegendNANA
11:00 Legend Double Dagger 19.3 17.1 87 14 31 24.1 100.41     Cloudy
12:00 Legend Double Dagger 19.1 17.1 88 14 33 24.1 100.22     Rain Showers
13:00 Legend Double Dagger 18.8 16.8 88 15 37 16.1 100.01     Rain Showers
14:00 Legend Double Dagger 18.6 17.1 91 15 41 16.1 99.85     Rain Showers
15:00 Legend Double Dagger 18.3 16.5 89 15 43 16.1 99.67     Rain Showers
16:00 Legend Double Dagger 17.3 16.5 95 15 48 6.4 99.61     Moderate Rain Showers,Fog
17:00 Legend Double Dagger 15.9 15.1 95 20 21 24.1 99.76     Mostly Cloudy
18:00 Legend Double Dagger 15.7 14.4 92 21 16 24.1 99.82     LegendNANA
19:00 Legend Double Dagger 15.4 14.3 93 19 23 24.1 99.86     LegendNANA
20:00 Legend Double Dagger 15.5 13.7 89 19 24 24.1 99.91     Mainly Clear
21:00 Legend Double Dagger 14.9 13.5 91 19 25 24.1 99.97     LegendNANA
22:00 Legend Double Dagger 14.8 13.4 91 20 28 24.1 99.96     LegendNANA
23:00 Legend Double Dagger 14.5 13.1 91 20 22 24.1 100.01     Mainly Clear

Notes on Data Quality.

Legend

  • E = Estimated
  • M = Missing
  • NA = Not Available
  • ‡ = Partner data that is not subject to review by the National Climate Archives
Date modified: